Location: Detroit
(42.3310°N, 83.0460°W)
Time: 01:15:23
(UTC-05:00)

Transit 2A Rocket - All Passes

Search period start: 06 February 2023 00:00
Search period end: 16 February 2023 00:00
Orbit: 585 x 915 km, 66.7° (Epoch: 05 February)

Date Brightness Start Highest point End Pass type
(mag) Time Alt. Az. Time Alt. Az. Time Alt. Az.
06 Feb - 01:43:16 10° NW 01:45:18 12° NNW 01:47:22 10° N night (unlit)
06 Feb - 06:56:29 10° NNW 07:01:37 28° NE 07:06:49 10° ESE visible
06 Feb - 08:38:39 10° NW 08:44:38 61° WSW 08:50:37 10° SSE daylight
06 Feb - 21:34:47 10° ESE 21:36:33 12° E 21:38:20 10° E night (unlit)
06 Feb - 23:13:10 10° SSW 23:18:06 86° WNW 23:23:37 10° NNE night (unlit)
07 Feb - 00:58:13 10° WNW 01:01:37 17° NW 01:05:14 10° N night (unlit)
07 Feb - 06:13:51 10° N 06:18:07 20° NE 06:22:27 10° E visible
07 Feb - 07:55:30 10° NNW 08:01:36 84° ENE 08:07:42 10° SSE daylight
07 Feb - 09:39:51 10° WNW 09:43:29 16° WSW 09:47:06 10° SW daylight
07 Feb - 22:30:20 10° S 22:35:07 54° ESE 22:40:25 10° NE night (unlit)
08 Feb - 00:13:51 10° W 00:18:05 25° NW 00:22:39 10° N night (unlit)
08 Feb - 05:31:28 10° N 05:34:29 14° NNE 05:37:33 10° ENE visible
08 Feb - 07:12:31 10° NNW 07:18:27 54° NE 07:24:25 10° SE daylight
08 Feb - 08:55:42 10° NW 09:00:46 28° WSW 09:05:47 10° SSW daylight
08 Feb - 21:47:59 10° S 21:52:17 31° ESE 21:56:57 10° NE night (unlit)
08 Feb - 23:29:58 10° WSW 23:34:42 39° NW 23:39:53 10° NNE night (unlit)
09 Feb - 06:29:38 10° NNW 06:35:10 36° NE 06:40:43 10° ESE visible
09 Feb - 08:12:09 10° NW 08:17:55 46° WSW 08:23:38 10° S daylight
09 Feb - 21:06:23 10° SE 21:09:35 17° ESE 21:12:58 10° ENE night (unlit)
09 Feb - 22:46:30 10° SW 22:51:27 64° WNW 22:56:57 10° NNE night (unlit)
10 Feb - 00:32:31 10° WNW 00:35:17 14° NNW 00:38:10 10° N night (unlit)
10 Feb - 05:46:53 10° N 05:51:44 24° NE 05:56:37 10° E visible
10 Feb - 07:28:52 10° NW 07:34:57 75° WSW 07:41:00 10° SSE daylight
10 Feb - 09:14:39 10° W 09:16:34 12° W 09:18:28 10° WSW daylight
10 Feb - 22:03:25 10° SSW 22:08:22 76° ESE 22:13:52 10° NNE night (unlit)
10 Feb - 23:47:49 10° W 23:51:40 20° NW 23:55:46 10° N night (unlit)
11 Feb - 05:04:20 10° N 05:08:11 17° NE 05:12:04 10° ENE visible
11 Feb - 06:45:47 10° NNW 06:51:51 71° ENE 06:57:56 10° SE visible
11 Feb - 08:29:34 10° WNW 08:33:54 21° WSW 08:38:13 10° SSW daylight
11 Feb - 21:20:46 10° S 21:25:26 43° ESE 21:30:35 10° NE night (unlit)
11 Feb - 23:03:40 10° WSW 23:08:11 30° NW 23:13:05 10° NNE night (unlit)
12 Feb - 04:22:09 10° N 04:24:28 12° NNE 04:26:50 10° NE visible
12 Feb - 06:02:50 10° NNW 06:08:39 45° NE 06:14:27 10° SE visible
12 Feb - 07:45:43 10° NW 07:51:09 34° WSW 07:56:29 10° S daylight
12 Feb - 20:38:40 10° SSE 20:42:39 25° ESE 20:46:57 10° NE night (unlit)
12 Feb - 22:19:57 10° SW 22:24:51 47° NW 22:30:14 10° NNE night (unlit)
13 Feb - 00:07:09 10° NW 00:08:59 12° NNW 00:10:52 10° N night (unlit)
13 Feb - 05:20:00 10° NNW 05:25:18 30° NE 05:30:37 10° ESE visible
13 Feb - 07:02:17 10° NW 07:08:14 56° WSW 07:14:08 10° S visible
13 Feb - 19:57:33 10° SE 20:00:00 14° ESE 20:02:32 10° ENE night (unlit)
13 Feb - 21:36:38 10° SW 21:41:39 79° WNW 21:47:15 10° NNE night (unlit)
13 Feb - 23:21:56 10° WNW 23:25:17 16° NW 23:28:47 10° N night (unlit)
14 Feb - 04:37:18 10° N 04:41:48 21° NE 04:46:20 10° E visible
14 Feb - 06:19:06 10° NNW 06:25:13 89° WSW 06:31:18 10° SSE visible
14 Feb - 08:03:46 10° WNW 08:07:00 15° WSW 08:10:12 10° SW daylight
14 Feb - 20:53:43 10° SSW 20:58:38 61° ESE 21:04:05 10° NE night (unlit)
14 Feb - 22:37:30 10° W 22:41:42 24° NW 22:46:14 10° N night (unlit)
15 Feb - 03:54:51 10° N 03:58:11 15° NE 04:01:32 10° ENE visible
15 Feb - 05:36:03 10° NNW 05:42:05 59° NE 05:48:04 10° SE visible
15 Feb - 07:19:25 10° NW 07:24:18 25° WSW 07:29:06 10° SSW daylight
15 Feb - 20:11:16 10° S 20:15:45 34° ESE 20:20:40 10° NE visible
15 Feb - 21:53:32 10° WSW 21:58:17 36° NW 22:03:27 10° NNE night (unlit)
